Location: *
(43.2048°N, 0.1612°E)
Time: 21:50:43
(UTC+00:00)

ATLAS 2AS CENTAUR R/B - Pass Details

Date: 30 September 2023
Orbit: 1000 x 1211 km, 63.7° (Epoch: 02 December)

Event Time Altitude Azimuth Distance (km) Brightness Sun altitude
Exits shadow 04:15:28 21° 291° (WNW) 2,373 4.1 -18.8°
Maximum altitude 04:18:31 27° 327° (NNW) 2,057 4.0 -18.3°
Drops below altitude 10° 04:24:29 10° 23° (NNE) 3,002 5.5 -17.2°
Sets 04:27:38 0° 36° (NE) 3,927 6.4 -16.7°
